Time,TemperatureF,DewpointF,PressureIn,WindDirection,WindDirectionDegrees,WindSpeedMPH,WindSpeedGustMPH,Humidity,HourlyPrecipIn,Conditions,Clouds,dailyrainin,SoftwareType,DateUTC
2013-12-23 00:02:00,18.0,-99.9,-100.00,WNW,287,12.0,15.0,-999,0.00,,,0.00,,2013-12-23 06:02:00,
2013-12-23 00:22:00,18.0,-99.9,-100.00,WNW,288,12.0,15.0,-999,0.00,,,0.00,,2013-12-23 06:22:00,
2013-12-23 00:42:00,18.0,-99.9,-100.00,WNW,293,13.0,15.0,-999,0.00,,,0.00,,2013-12-23 06:42:00,
2013-12-23 00:53:00,18.0,-99.9,-100.00,WNW,293,13.0,15.0,-999,0.00,,,0.00,,2013-12-23 06:53:00,
2013-12-23 01:02:00,18.0,-99.9,-100.00,WNW,293,13.0,15.0,-999,0.00,,,0.00,,2013-12-23 07:02:00,
2013-12-23 01:23:00,17.0,-99.9,-100.00,WNW,296,15.0,20.0,-999,0.00,,,0.00,,2013-12-23 07:23:00,
2013-12-23 01:42:00,15.0,-99.9,-100.00,WNW,283,11.0,16.0,-999,0.00,,,0.00,,2013-12-23 07:42:00,
2013-12-23 01:52:00,15.0,-99.9,-100.00,WNW,283,11.0,16.0,-999,0.00,,,0.00,,2013-12-23 07:52:00,
2013-12-23 02:02:00,15.0,-99.9,-100.00,WNW,283,11.0,16.0,-999,0.00,,,0.00,,2013-12-23 08:02:00,
2013-12-23 02:22:00,13.0,-99.9,-100.00,WNW,289,15.0,18.0,-999,0.00,,,0.00,,2013-12-23 08:22:00,
2013-12-23 02:42:00,10.0,-99.9,-100.00,WNW,291,14.0,16.0,-999,0.00,,,0.00,,2013-12-23 08:42:00,
2013-12-23 02:53:00,10.0,-99.9,-100.00,WNW,291,14.0,16.0,-999,0.00,,,0.00,,2013-12-23 08:53:00,
2013-12-23 03:02:00,10.0,-99.9,-100.00,WNW,291,14.0,16.0,-999,0.00,,,0.00,,2013-12-23 09:02:00,
2013-12-23 03:22:00,8.0,-99.9,-100.00,WNW,292,12.0,16.0,-999,0.00,,,0.00,,2013-12-23 09:22:00,
2013-12-23 03:43:00,7.0,-99.9,-100.00,WNW,292,12.0,15.0,-999,0.00,,,0.00,,2013-12-23 09:43:00,
2013-12-23 03:54:00,7.0,-99.9,-100.00,WNW,292,12.0,15.0,-999,0.00,,,0.00,,2013-12-23 09:54:00,
2013-12-23 04:03:00,7.0,-99.9,-100.00,WNW,292,12.0,15.0,-999,0.00,,,0.00,,2013-12-23 10:03:00,
2013-12-23 04:23:00,6.0,-99.9,-100.00,WNW,294,12.0,14.0,-999,0.00,,,0.00,,2013-12-23 10:23:00,
2013-12-23 04:43:00,5.0,-99.9,-100.00,WNW,295,9.0,11.0,-999,0.00,,,0.00,,2013-12-23 10:43:00,
2013-12-23 04:53:00,5.0,-99.9,-100.00,WNW,295,9.0,11.0,-999,0.00,,,0.00,,2013-12-23 10:53:00,
2013-12-23 05:12:00,4.0,-99.9,-100.00,WNW,292,7.0,10.0,-999,0.00,,,0.00,,2013-12-23 11:12:00,
2013-12-23 05:22:00,4.0,-99.9,-100.00,WNW,292,7.0,10.0,-999,0.00,,,0.00,,2013-12-23 11:22:00,
2013-12-23 05:32:00,4.0,-99.9,-100.00,WNW,292,7.0,10.0,-999,0.00,,,0.00,,2013-12-23 11:32:00,
2013-12-23 05:53:00,3.0,-99.9,-100.00,WNW,287,8.0,10.0,-999,0.00,,,0.00,,2013-12-23 11:53:00,
2013-12-23 06:11:00,3.0,-99.9,-100.00,WNW,284,7.0,10.0,-999,0.00,,,0.00,,2013-12-23 12:11:00,
2013-12-23 06:22:00,3.0,-99.9,-100.00,WNW,284,7.0,10.0,-999,0.00,,,0.00,,2013-12-23 12:22:00,
2013-12-23 06:32:00,3.0,-99.9,-100.00,WNW,284,7.0,10.0,-999,0.00,,,0.00,,2013-12-23 12:32:00,
2013-12-23 06:52:00,2.0,-99.9,-100.00,West,277,8.0,10.0,-999,0.00,,,0.00,,2013-12-23 12:52:00,
2013-12-23 07:02:00,2.0,-99.9,-100.00,West,277,8.0,10.0,-999,0.00,,,0.00,,2013-12-23 13:02:00,
2013-12-23 07:22:00,2.0,-99.9,-100.00,West,279,9.0,11.0,-999,0.00,,,0.00,,2013-12-23 13:22:00,
2013-12-23 07:42:00,2.0,-99.9,-100.00,WNW,284,8.0,10.0,-999,0.00,,,0.00,,2013-12-23 13:42:00,
2013-12-23 07:52:00,2.0,-99.9,-100.00,WNW,284,8.0,10.0,-999,0.00,,,0.00,,2013-12-23 13:52:00,
2013-12-23 08:02:00,2.0,-99.9,-100.00,WNW,284,8.0,10.0,-999,0.00,,,0.00,,2013-12-23 14:02:00,
2013-12-23 08:22:00,1.0,-99.9,-100.00,West,281,8.0,11.0,-999,0.00,,,0.00,,2013-12-23 14:22:00,
2013-12-23 08:42:00,2.0,-99.9,-100.00,WNW,285,11.0,14.0,-999,0.00,,,0.00,,2013-12-23 14:42:00,
2013-12-23 08:52:00,2.0,-99.9,-100.00,WNW,285,11.0,14.0,-999,0.00,,,0.00,,2013-12-23 14:52:00,
2013-12-23 09:02:00,2.0,-99.9,-100.00,WNW,285,11.0,14.0,-999,0.00,,,0.00,,2013-12-23 15:02:00,
2013-12-23 09:22:00,2.0,-99.9,-100.00,WNW,284,12.0,14.0,-999,0.00,,,-99.99,,2013-12-23 15:22:00,
2013-12-23 09:44:00,2.0,-99.9,-100.00,WNW,287,13.0,19.0,-999,0.00,,,0.00,,2013-12-23 15:44:00,
2013-12-23 09:54:00,2.0,-99.9,-100.00,WNW,287,13.0,19.0,-999,0.00,,,0.00,,2013-12-23 15:54:00,
2013-12-23 10:13:00,2.0,-99.9,-100.00,WNW,295,12.0,15.0,-999,0.00,,,0.00,,2013-12-23 16:13:00,
2013-12-23 10:24:00,2.0,-99.9,-100.00,WNW,295,12.0,15.0,-999,0.00,,,0.00,,2013-12-23 16:24:00,
2013-12-23 10:43:00,3.0,-99.9,-100.00,WNW,288,13.0,17.0,-999,0.00,,,0.00,,2013-12-23 16:43:00,
2013-12-23 10:53:00,3.0,-99.9,-100.00,WNW,288,13.0,17.0,-999,0.00,,,0.00,,2013-12-23 16:53:00,
2013-12-23 11:13:00,4.0,-99.9,-100.00,WNW,282,13.0,20.0,-999,0.00,,,0.00,,2013-12-23 17:13:00,
2013-12-23 11:25:00,4.0,-99.9,-100.00,WNW,282,13.0,20.0,-999,0.00,,,0.00,,2013-12-23 17:25:00,
2013-12-23 11:42:00,4.0,-99.9,-100.00,WNW,299,11.0,14.0,-999,0.00,,,0.00,,2013-12-23 17:42:00,
2013-12-23 11:53:00,4.0,-99.9,-100.00,WNW,299,11.0,14.0,-999,0.00,,,0.00,,2013-12-23 17:53:00,
2013-12-23 12:02:00,4.0,-99.9,-100.00,WNW,299,11.0,14.0,-999,0.00,,,0.00,,2013-12-23 18:02:00,
2013-12-23 12:24:00,5.0,-99.9,-100.00,WNW,291,12.0,17.0,-999,0.00,,,0.00,,2013-12-23 18:24:00,
2013-12-23 12:42:00,7.0,-99.9,-100.00,West,274,13.0,18.0,-999,0.00,,,0.00,,2013-12-23 18:42:00,
2013-12-23 12:52:00,7.0,-99.9,-100.00,West,274,13.0,18.0,-999,0.00,,,0.00,,2013-12-23 18:52:00,
2013-12-23 13:02:00,7.0,-99.9,-100.00,West,274,13.0,18.0,-999,0.00,,,0.00,,2013-12-23 19:02:00,
2013-12-23 13:22:00,6.0,-99.9,-100.00,West,280,15.0,21.0,-999,0.00,,,0.00,,2013-12-23 19:22:00,
2013-12-23 13:42:00,6.0,-99.9,-100.00,West,273,14.0,15.0,-999,0.00,,,0.00,,2013-12-23 19:42:00,
2013-12-23 13:52:00,6.0,-99.9,-100.00,West,273,14.0,15.0,-999,0.00,,,0.00,,2013-12-23 19:52:00,
2013-12-23 14:11:00,6.0,-99.9,-100.00,West,280,15.0,20.0,-999,0.00,,,0.00,,2013-12-23 20:11:00,
2013-12-23 14:22:00,6.0,-99.9,-100.00,West,280,15.0,20.0,-999,0.00,,,0.00,,2013-12-23 20:22:00,
2013-12-23 14:32:00,6.0,-99.9,-100.00,West,280,15.0,20.0,-999,0.00,,,0.00,,2013-12-23 20:32:00,
2013-12-23 14:52:00,6.0,-99.9,-100.00,West,278,17.0,23.0,-999,0.00,,,-99.99,,2013-12-23 20:52:00,
2013-12-23 15:11:00,5.0,-99.9,-100.00,WNW,283,15.0,19.0,-999,0.00,,,0.00,,2013-12-23 21:11:00,
2013-12-23 15:22:00,5.0,-99.9,-100.00,WNW,283,15.0,19.0,-999,0.00,,,0.00,,2013-12-23 21:22:00,
2013-12-23 15:43:00,5.0,-99.9,-100.00,WNW,288,15.0,19.0,-999,0.00,,,0.00,,2013-12-23 21:43:00,
2013-12-23 15:54:00,5.0,-99.9,-100.00,WNW,288,15.0,19.0,-999,0.00,,,0.00,,2013-12-23 21:54:00,
2013-12-23 16:12:00,5.0,-99.9,-100.00,WNW,288,13.0,16.0,-999,0.00,,,0.00,,2013-12-23 22:12:00,
2013-12-23 16:23:00,5.0,-99.9,-100.00,WNW,288,13.0,16.0,-999,0.00,,,0.00,,2013-12-23 22:23:00,
2013-12-23 16:33:00,5.0,-99.9,-100.00,WNW,288,13.0,16.0,-999,0.00,,,0.00,,2013-12-23 22:33:00,
2013-12-23 16:53:00,4.0,-99.9,-100.00,WNW,283,11.0,13.0,-999,0.00,,,0.00,,2013-12-23 22:53:00,
2013-12-23 17:12:00,3.0,-99.9,-100.00,WNW,285,8.0,9.0,-999,0.00,,,0.00,,2013-12-23 23:12:00,
2013-12-23 17:22:00,3.0,-99.9,-100.00,WNW,285,8.0,9.0,-999,0.00,,,0.00,,2013-12-23 23:22:00,
2013-12-23 17:42:00,2.0,-99.9,-100.00,WNW,292,7.0,10.0,-999,0.00,,,0.00,,2013-12-23 23:42:00,
2013-12-23 17:54:00,2.0,-99.9,-100.00,WNW,292,7.0,10.0,-999,0.00,,,0.00,,2013-12-23 23:54:00,
2013-12-23 18:03:00,2.0,-99.9,-100.00,WNW,292,7.0,10.0,-999,0.00,,,0.00,,2013-12-24 00:03:00,
2013-12-23 18:22:00,2.0,-99.9,-100.00,West,281,7.0,11.0,-999,0.00,,,0.00,,2013-12-24 00:22:00,
2013-12-23 18:32:00,2.0,-99.9,-100.00,West,281,7.0,11.0,-999,0.00,,,0.00,,2013-12-24 00:32:00,
2013-12-23 18:52:00,2.0,-99.9,-100.00,West,280,8.0,10.0,-999,0.00,,,0.00,,2013-12-24 00:52:00,
2013-12-23 19:11:00,2.0,-99.9,-100.00,WNW,283,6.0,8.0,-999,0.00,,,0.00,,2013-12-24 01:11:00,
2013-12-23 19:22:00,2.0,-99.9,-100.00,WNW,283,6.0,8.0,-999,0.00,,,0.00,,2013-12-24 01:22:00,
2013-12-23 19:32:00,2.0,-99.9,-100.00,WNW,283,6.0,8.0,-999,0.00,,,0.00,,2013-12-24 01:32:00,
2013-12-23 19:52:00,2.0,-99.9,-100.00,WNW,284,8.0,11.0,-999,0.00,,,0.00,,2013-12-24 01:52:00,
2013-12-23 20:12:00,1.0,-99.9,-100.00,WNW,284,7.0,10.0,-999,0.00,,,0.00,,2013-12-24 02:12:00,
2013-12-23 20:22:00,1.0,-99.9,-100.00,WNW,284,7.0,10.0,-999,0.00,,,0.00,,2013-12-24 02:22:00,
2013-12-23 20:33:00,1.0,-99.9,-100.00,WNW,284,7.0,10.0,-999,0.00,,,0.00,,2013-12-24 02:33:00,
2013-12-23 20:52:00,1.0,-99.9,-100.00,West,269,6.0,8.0,-999,0.00,,,0.00,,2013-12-24 02:52:00,
2013-12-23 21:11:00,1.0,-99.9,-100.00,West,279,8.0,9.0,-999,0.00,,,0.00,,2013-12-24 03:11:00,
2013-12-23 21:22:00,1.0,-99.9,-100.00,West,279,8.0,9.0,-999,0.00,,,0.00,,2013-12-24 03:22:00,
2013-12-23 22:53:00,-1.0,-99.9,-100.00,West,270,8.0,10.0,-999,0.00,,,0.00,,2013-12-24 04:53:00,
2013-12-23 23:12:00,-1.0,-99.9,-100.00,West,273,9.0,10.0,-999,0.00,,,0.00,,2013-12-24 05:12:00,
2013-12-23 23:22:00,-1.0,-99.9,-100.00,West,273,9.0,10.0,-999,0.00,,,0.00,,2013-12-24 05:22:00,
2013-12-23 23:43:00,-1.0,-99.9,-100.00,West,273,9.0,11.0,-999,0.00,,,0.00,,2013-12-24 05:43:00,
2013-12-23 23:53:00,-1.0,-99.9,-100.00,West,273,9.0,11.0,-999,0.00,,,0.00,,2013-12-24 05:53:00,